"2010-03-19 00:00:00",1774359,13.24,66.27,6.061,1.008,10.23,102.6084,5.957,7.266,46.97,0,110.1,13.37,6.73,28.3
"2010-03-19 00:00:30",1774360,13.13,66.03,4.957,0.87,10.51,102.6075,5.955,7.293,46.89,0,110.1,13.37,6.73,28.0
"2010-03-19 00:01:00",1774361,13.73,69.1,3.693,0.854,10.98,102.5946,5.922,7.275,46.77,0,110.1,13.37,6.69,31.1
"2010-03-19 00:01:30",1774362,14.04,66.99,4.566,0.564,10.98,102.5754,5.873,7.265,46.85,0,110.1,13.37,6.65,29.0
"2010-03-19 00:02:00",1774363,13.52,66.36,3.872,0.677,10.66,102.5745,5.871,7.246,46.77,0,110.1,13.37,6.64,28.4
"2010-03-19 00:02:30",1774364,13.88,66.86,3.512,0.704,10.54,102.5745,5.871,7.212,46.96,0,110.1,13.37,6.64,28.9
"2010-03-19 00:03:00",1774365,14.17,65.5,4.004,0.538,10.44,102.5745,5.871,7.207,47.2,0,110.1,13.36,6.64,27.5
"2010-03-19 00:03:30",1774366,13.88,66.21,3.657,0.865,10.45,102.5672,5.852,7.21,47.42,0,110.1,13.36,6.62,28.2
"2010-03-19 00:04:00",1774367,13.54,68.8,4.537,0.581,10.45,102.5564,5.824,7.188,47.53,0,110.1,13.36,6.60,30.8
"2010-03-19 00:04:30",1774368,13.63,67.83,4.24,0.704,10.51,102.544,5.793,7.16,47.75,0,110.1,13.36,6.56,29.8
"2010-03-19 00:05:00",1774369,13.73,65.83,3.618,0.874,10.22,102.5406,5.784,7.147,47.86,0,110.1,13.36,6.56,27.8
"2010-03-19 00:05:30",1774370,13.5,67.21,3.139,0.828,10.25,102.5406,5.784,7.16,47.97,0,110.1,13.36,6.56,29.2
"2010-03-19 00:06:00",1774371,12.84,66.61,3.94,0.724,10.2,102.5406,5.784,7.123,48.12,0,110.1,13.36,6.56,28.6
"2010-03-19 00:06:30",1774372,13.9,65.8,3.966,0.499,10.45,102.5387,5.779,7.102,48,0,110.1,13.36,6.55,27.8
"2010-03-19 00:07:00",1774373,13.3,66.06,3.097,0.708,10.15,102.5282,5.752,7.1,47.84,0,110.1,13.36,6.52,28.1
"2010-03-19 00:07:30",1774374,13.42,64,3.109,0.842,10.07,102.511,5.708,7.092,47.66,0,110.1,13.36,6.48,26.0
"2010-03-19 00:08:00",1774375,13.17,63.94,3.697,0.726,10.13,102.5071,5.698,7.078,47.18,0,110.1,13.37,6.47,25.9
"2010-03-19 00:08:30",1774376,13.15,64.69,3.249,0.551,10.5,102.5079,5.7,7.057,46.76,0,110.1,13.37,6.47,26.7
"2010-03-19 00:09:00",1774377,12.7,65.3,3.334,0.759,10.11,102.5094,5.704,7.051,46.7,0,110.1,13.37,6.48,27.3
"2010-03-19 00:09:30",1774378,13.46,68.06,3.505,0.766,10.15,102.5088,5.703,7.053,47.01,0,110.1,13.37,6.47,30.1
"2010-03-19 00:10:00",1774379,13.9,67.05,3.9,0.547,10.21,102.5085,5.702,7.031,47.77,0,110.1,13.37,6.47,29.1
"2010-03-19 00:10:30",1774380,14.04,67.95,2.908,0.656,10.23,102.5018,5.685,7.005,47.71,0,110.1,13.37,6.46,29.9
"2010-03-19 00:11:00",1774381,12.94,66.08,3.221,0.882,10.14,102.4919,5.66,7.001,47.5,0,110.1,13.37,6.43,28.1
"2010-03-19 00:11:30",1774382,12.62,64.55,2.755,1.017,10.09,102.4846,5.641,6.998,48.2,0,110.1,13.37,6.41,26.6
"2010-03-19 00:12:00",1774383,12.11,64.44,4.373,0.879,10.14,102.4839,5.639,6.998,48.23,0,110.1,13.37,6.41,26.4
"2010-03-19 00:12:30",1774384,13.12,65.26,4.581,1.001,10.36,102.4856,5.643,6.981,48.39,0,110.1,13.37,6.42,27.3
"2010-03-19 00:13:00",1774385,13.51,66.98,3.131,0.78,10.03,102.4856,5.643,6.98,48.48,0,110.1,13.37,6.42,29.0
"2010-03-19 00:13:30",1774386,13.27,65.75,2.687,0.804,9.99,102.4874,5.648,6.972,48.38,0,110.1,13.37,6.42,27.8
"2010-03-19 00:14:00",1774387,13.21,64.54,2.821,0.796,10.01,102.4902,5.655,6.962,48.43,0,110.1,13.37,6.43,26.5
"2010-03-19 00:14:30",1774388,13.25,64.31,2.477,0.71,10.2,102.4929,5.662,6.94,48.76,0,110.1,13.37,6.43,26.3
"2010-03-19 00:15:00",1774389,12.93,63.87,3.024,0.911,10.12,102.4929,5.662,6.934,48.82,0,110.1,13.37,6.43,25.9
"2010-03-19 00:15:30",1774390,13.19,67.65,4.178,0.863,10.12,102.4825,5.635,6.938,48.9,0,110.1,13.37,6.41,29.7
"2010-03-19 00:16:00",1774391,13.13,66.35,3.187,0.831,10.06,102.4712,5.607,6.927,49.41,0,110.1,13.37,6.38,28.3
"2010-03-19 00:16:30",1774392,13.01,66.59,2.942,0.866,10.21,102.4682,5.599,6.909,49.66,0,110.1,13.37,6.37,28.6
"2010-03-19 00:17:00",1774393,13.36,65.05,3.14,1.029,10,102.4679,5.598,6.895,49.6,0,110.1,13.38,6.37,27.1
"2010-03-19 00:17:30",1774394,13.42,64.81,4.041,0.814,10.13,102.4691,5.601,6.895,49.53,0,110.1,13.38,6.37,26.8
"2010-03-19 00:18:00",1774395,13.59,64.21,4.227,0.771,10.27,102.4688,5.6,6.868,49.39,0,110.1,13.38,6.37,26.2
"2010-03-19 00:18:30",1774396,13.83,63.62,3.887,0.694,10.43,102.4706,5.605,6.858,48.83,0,110.1,13.38,6.38,25.6
"2010-03-19 00:19:00",1774397,13.62,66.51,3.592,0.779,10.28,102.465,5.591,6.85,49.44,0,110.1,13.38,6.36,28.5
"2010-03-19 00:19:30",1774398,12.54,65.48,4.303,0.795,10.32,102.4475,5.546,6.86,49.61,0,110.1,13.37,6.32,27.5
"2010-03-19 00:20:00",1774399,12.67,61.6,3.985,0.877,10.31,102.4398,5.526,6.832,49.7,0,110.1,13.37,6.30,23.6
"2010-03-19 00:20:30",1774400,12.57,62.64,3.79,0.89,10.29,102.4398,5.526,6.824,49.53,0,110.1,13.37,6.30,24.6
"2010-03-19 00:21:00",1774401,12.35,64.23,4.319,0.666,10.27,102.4398,5.526,6.806,49.51,0,110.1,13.37,6.30,26.2
"2010-03-19 00:21:30",1774402,13.63,63.45,3.699,1.074,10.21,102.4387,5.524,6.814,49.59,0,110.1,13.37,6.29,25.5
"2010-03-19 00:22:00",1774403,13.02,62.33,3.588,0.691,10.21,102.4184,5.472,6.789,49.33,0,110.1,13.37,6.24,24.3
"2010-03-19 00:22:30",1774404,13.06,63.38,2.581,0.655,10.36,102.406,5.44,6.748,49.23,0,110.1,13.37,6.21,25.4
"2010-03-19 00:23:00",1774405,12.82,62.49,3.534,0.81,10.19,102.406,5.44,6.747,49.17,0,110.1,13.37,6.21,24.5
"2010-03-19 00:23:30",1774406,13.31,64.05,3.725,0.67,10.19,102.4057,5.439,6.741,49.23,0,110.1,13.37,6.21,26.1
"2010-03-19 00:24:00",1774407,13.48,61.21,4.185,0.746,10.22,102.3958,5.414,6.729,49.58,0,110.1,13.37,6.18,23.2
"2010-03-19 00:24:30",1774408,12.67,64.06,3.555,1.066,10.33,102.3746,5.36,6.703,49.88,0,110,13.38,6.13,26.1
"2010-03-19 00:25:00",1774409,12.71,63.52,5.005,0.767,10.21,102.3721,5.353,6.693,49.98,0,110.1,13.38,6.12,25.5
"2010-03-19 00:25:30",1774410,12.84,66.15,5.009,0.89,10.22,102.3721,5.353,6.662,50.06,0,110.1,13.39,6.12,28.2
"2010-03-19 00:26:00",1774411,12.83,65.28,3.043,0.81,10.11,102.3721,5.353,6.654,49.77,0,110,13.39,6.12,27.3
"2010-03-19 00:26:30",1774412,13.34,64.64,3.271,0.69,10.22,102.3678,5.343,6.627,50.18,0,110,13.39,6.11,26.6
"2010-03-19 00:27:00",1774413,13.42,62.69,3.749,0.952,10.1,102.3517,5.301,6.63,50.53,0,110.1,13.39,6.07,24.7
"2010-03-19 00:27:30",1774414,13.16,60.36,4.107,0.951,9.99,102.3404,5.273,6.633,50.66,0,110,13.39,6.04,22.4
"2010-03-19 00:28:00",1774415,12.31,58.11,4.058,0.981,9.97,102.3382,5.267,6.603,50.59,0,110,13.39,6.04,20.1
"2010-03-19 00:28:30",1774416,11.16,61.73,3.464,0.789,10.16,102.3382,5.267,6.599,50.94,0,110,13.39,6.04,23.7
"2010-03-19 00:29:00",1774417,11.74,62.12,5.347,1.036,9.89,102.3382,5.267,6.586,51.11,0,110,13.39,6.04,24.1
"2010-03-19 00:29:30",1774418,13.28,64.94,4.723,0.943,9.98,102.3382,5.267,6.601,51.26,0,110,13.39,6.04,26.9
"2010-03-19 00:30:00",1774419,13.25,67.87,3.121,0.926,9.77,102.3382,5.267,6.581,51.31,0,110,13.39,6.04,29.9
"2010-03-19 00:30:30",1774420,12.9,66.65,4.324,0.749,9.93,102.3382,5.267,6.569,51.32,0,110,13.39,6.04,28.7
"2010-03-19 00:31:00",1774421,12.84,66.53,3.22,0.808,9.72,102.3345,5.257,6.555,51.14,0,110,13.39,6.03,28.5
"2010-03-19 00:31:30",1774422,12.41,67.27,3.643,0.78,9.81,102.3139,5.205,6.559,51.19,0,110,13.39,5.98,29.3
"2010-03-19 00:32:00",1774423,12.84,69.61,3.606,0.881,9.85,102.3046,5.181,6.538,51.18,0,110,13.39,5.95,31.6
"2010-03-19 00:32:30",1774424,13.28,68.55,2.859,0.647,9.97,102.3026,5.176,6.516,51.06,0,110,13.39,5.95,30.6
"2010-03-19 00:33:00",1774425,13.62,69.82,4.59,0.493,9.91,102.2749,5.105,6.496,50.94,0,110,13.39,5.88,31.8
"2010-03-19 00:33:30",1774426,13.32,68.67,3.709,0.706,9.98,102.271,5.095,6.499,50.94,0,110,13.39,5.87,30.7
"2010-03-19 00:34:00",1774427,12.82,69.84,4.403,0.834,9.84,102.2622,5.073,6.447,51.02,0,110,13.39,5.84,31.8
"2010-03-19 00:34:30",1774428,12.84,65.03,4.386,0.65,10.11,102.2388,5.013,6.421,51.25,0,110,13.39,5.78,27.0
"2010-03-19 00:35:00",1774429,13.16,66.06,5.086,0.609,10.14,102.2423,5.022,6.417,51.34,0,110,13.4,5.79,28.1
"2010-03-19 00:35:30",1774430,12.65,69.44,5.472,0.601,9.83,102.2237,4.975,6.365,51.15,0,110,13.39,5.74,31.4
"2010-03-19 00:36:00",1774431,13.36,69.04,3.17,0.832,9.76,102.2179,4.96,6.35,51.1,0,110,13.39,5.73,31.0
"2010-03-19 00:36:30",1774432,13.94,70.74,2.852,0.807,9.92,102.216,4.955,6.312,51.06,0,110,13.39,5.72,32.7
"2010-03-19 00:37:00",1774433,12.94,70.24,4.345,0.748,9.93,102.1906,4.89,6.278,51.09,0,110,13.39,5.66,32.2
"2010-03-19 00:37:30",1774434,13.29,67.02,3.898,0.727,9.88,102.1913,4.892,6.276,51.27,0,110,13.39,5.66,29.0
"2010-03-19 00:38:00",1774435,12.77,69.04,4.251,0.875,9.81,102.1832,4.871,6.216,51.37,0,110,13.39,5.64,31.0
"2010-03-19 00:38:30",1774436,13.52,70.12,2.658,0.805,9.92,102.1649,4.824,6.193,51.25,0,110,13.39,5.59,32.1
"2010-03-19 00:39:00",1774437,13.67,71.72,3.219,0.86,9.72,102.1683,4.833,6.169,51.14,0,110,13.39,5.60,33.7
"2010-03-19 00:39:30",1774438,13.91,69.62,2.884,0.817,9.74,102.1429,4.768,6.159,51.22,0,110,13.39,5.54,31.6
"2010-03-19 00:40:00",1774439,13.11,69.94,3.23,0.815,9.78,102.1356,4.749,6.122,51.2,0,110,13.39,5.52,31.9
"2010-03-19 00:40:30",1774440,13.34,70.19,4.241,0.872,9.88,102.1356,4.749,6.094,51.28,0,110,13.4,5.52,32.2
"2010-03-19 00:41:00",1774441,13.64,71.41,2.708,0.667,9.65,102.1186,4.706,6.074,51.27,0,110,13.4,5.47,33.4
"2010-03-19 00:41:30",1774442,13.39,70.94,3.319,0.723,9.71,102.1017,4.663,6.041,51.26,0,110,13.4,5.43,32.9
"2010-03-19 00:42:00",1774443,12.86,74.18,3.037,0.798,9.68,102.1017,4.663,6.021,51.28,0,110,13.4,5.43,36.2
"2010-03-19 00:42:30",1774444,13.39,74.19,2.475,0.655,9.75,102.0941,4.643,5.996,51.22,0,110,13.4,5.41,36.2
"2010-03-19 00:43:00",1774445,12.7,72.34,3.464,0.73,9.59,102.0774,4.601,5.971,51.27,0,110,13.41,5.37,34.3
"2010-03-19 00:43:30",1774446,12.91,69.6,3.254,0.783,9.59,102.0678,4.576,5.967,51.44,0,110,13.41,5.34,31.6
"2010-03-19 00:44:00",1774447,12.66,69.02,2.891,0.789,9.58,102.0667,4.573,5.922,51.63,0,110,13.41,5.34,31.0
"2010-03-19 00:44:30",1774448,13.03,71.28,2.253,0.714,9.7,102.0486,4.527,5.897,51.49,0,110,13.41,5.30,33.3
"2010-03-19 00:45:00",1774449,13.27,73.92,3.245,0.861,9.54,102.0339,4.49,5.881,51.21,0,110,13.41,5.26,35.9
"2010-03-19 00:45:30",1774450,12.92,74.11,4.219,0.635,9.5,102.0339,4.49,5.861,50.97,0,109.9,13.41,5.26,36.1
"2010-03-19 00:46:00",1774451,12.19,73.63,3.359,0.723,9.43,102.0308,4.482,5.852,50.91,0,109.9,13.41,5.25,35.6
"2010-03-19 00:46:30",1774452,12.08,73.4,2.878,0.672,9.65,102.0164,4.445,5.824,50.88,0,109.9,13.41,5.21,35.4
"2010-03-19 00:47:00",1774453,12.33,73.53,3.187,0.694,9.4,102.0051,4.416,5.799,50.72,0,109.9,13.41,5.18,35.5
"2010-03-19 00:47:30",1774454,12.31,71.09,3.064,0.808,9.29,102,4.403,5.788,50.79,0,109.9,13.41,5.17,33.1
"2010-03-19 00:48:00",1774455,12.2,72.06,2.969,0.711,9.34,101.9972,4.396,5.765,51.19,0,109.9,13.41,5.16,34.1
"2010-03-19 00:48:30",1774456,12.83,74.7,3.737,0.7,9.35,101.9862,4.368,5.733,50.92,0,109.9,13.41,5.14,36.7
"2010-03-19 00:49:00",1774457,12.95,73.74,3.971,0.696,9.24,101.9693,4.325,5.715,50.51,0,109.9,13.42,5.09,35.7
"2010-03-19 00:49:30",1774458,13.05,72.74,3.965,0.761,9.33,101.9713,4.33,5.719,50.7,0,109.9,13.42,5.10,34.7
"2010-03-19 00:50:00",1774459,13.3,74.69,3.232,0.692,9.4,101.9736,4.336,5.689,50.52,0,109.9,13.42,5.10,36.7
"2010-03-19 00:50:30",1774460,13.5,72.98,2.993,0.694,9.45,101.9635,4.31,5.667,50.63,0,109.9,13.42,5.08,35.0
"2010-03-19 00:51:00",1774461,13.26,71.63,3.271,0.762,9.38,101.9488,4.273,5.64,50.65,0,109.9,13.42,5.04,33.6
"2010-03-19 00:51:30",1774462,13.21,71.22,4.002,0.681,9.49,101.9483,4.271,5.645,50.82,0,109.9,13.42,5.04,33.2
"2010-03-19 00:52:00",1774463,13.79,71.97,3.2,0.787,9.35,101.9469,4.268,5.592,50.88,0,109.9,13.42,5.03,34.0
"2010-03-19 00:52:30",1774464,14.12,73.16,2.497,0.76,9.56,101.9377,4.244,5.578,50.86,0,109.9,13.42,5.01,35.2
"2010-03-19 00:53:00",1774465,14.06,72.39,2.783,0.901,9.45,101.9251,4.212,5.565,50.83,0,109.9,13.42,4.98,34.4
"2010-03-19 00:53:30",1774466,14.1,72.78,1.98,0.906,9.38,101.9274,4.218,5.546,50.9,0,109.9,13.42,4.98,34.8
"2010-03-19 00:54:00",1774467,13.59,71.74,2.843,0.766,9.43,101.9173,4.192,5.506,50.98,0,109.9,13.42,4.96,33.7
"2010-03-19 00:54:30",1774468,13.44,70.3,2.675,0.71,9.64,101.9032,4.156,5.5,51.24,0,109.9,13.42,4.92,32.3
"2010-03-19 00:55:00",1774469,13.59,69.9,3.005,0.783,9.41,101.8984,4.144,5.472,51.39,0,109.9,13.42,4.91,31.9
"2010-03-19 00:55:30",1774470,13.77,70.42,3.125,0.746,9.39,101.8972,4.141,5.455,51.29,0,109.9,13.42,4.91,32.4
"2010-03-19 00:56:00",1774471,13.85,70.92,3.064,0.862,9.41,101.8744,4.082,5.43,51.26,0,109.9,13.42,4.85,32.9
"2010-03-19 00:56:30",1774472,13.95,72.26,3.23,0.56,9.65,101.865,4.059,5.406,51.22,0,109.9,13.42,4.82,34.3
"2010-03-19 00:57:00",1774473,13.88,71.23,3.369,0.669,9.57,101.865,4.059,5.395,51.23,0,109.9,13.42,4.82,33.2
"2010-03-19 00:57:30",1774474,13.98,70.88,2.8,0.834,9.35,101.8616,4.05,5.374,51.27,0,109.9,13.43,4.82,32.9
"2010-03-19 00:58:00",1774475,13.86,71.87,3.562,0.713,9.48,101.8433,4.003,5.343,51.2,0,109.9,13.43,4.77,33.9
"2010-03-19 00:58:30",1774476,14.06,71.51,3.802,0.5,9.61,101.8311,3.972,5.338,51.31,0,109.9,13.43,4.74,33.5
"2010-03-19 00:59:00",1774477,14.05,73.51,3.018,0.732,9.39,101.8311,3.972,5.289,51.29,0,109.9,13.43,4.74,35.5
"2010-03-19 00:59:30",1774478,13.68,72.5,3.158,0.81,9.45,101.828,3.964,5.29,51.33,0,109.9,13.43,4.73,34.5
"2010-03-19 01:00:00",1774479,13.71,70.33,3.465,0.683,9.44,101.8068,3.91,5.267,51.33,0,109.9,13.43,4.68,32.3
"2010-03-19 01:00:30",1774480,13.71,71.34,3.533,0.574,9.56,101.7972,3.885,5.233,51.3,0,109.9,13.43,4.65,33.3
"2010-03-19 01:01:00",1774481,13.84,71.3,3.502,0.721,9.43,101.7972,3.885,5.223,51.35,0,109.9,13.43,4.65,33.3
"2010-03-19 01:01:30",1774482,12.98,72.4,4.034,0.648,9.38,101.7958,3.882,5.219,51.49,0,109.9,13.43,4.65,34.4
"2010-03-19 01:02:00",1774483,13.53,73.29,2.322,0.789,9.3,101.7738,3.826,5.177,51.55,0,109.9,13.43,4.59,35.3
"2010-03-19 01:02:30",1774484,12.78,71.17,3.385,0.634,9.43,101.7633,3.799,5.146,51.57,0,109.9,13.43,4.56,33.2
"2010-03-19 01:03:00",1774485,13.41,73.3,3.65,0.835,9.18,101.7633,3.799,5.142,51.64,0,109.9,13.43,4.56,35.3
"2010-03-19 01:03:30",1774486,13.33,72.8,3.516,0.79,9.16,101.7613,3.794,5.139,51.73,0,109.9,13.43,4.56,34.8
"2010-03-19 01:04:00",1774487,13.36,71.86,3.243,0.706,9.26,101.7362,3.73,5.117,51.8,0,109.9,13.43,4.49,33.9
"2010-03-19 01:04:30",1774488,13.49,71.93,3.833,0.525,9.36,101.7294,3.712,5.097,51.84,0,109.9,13.43,4.48,33.9
"2010-03-19 01:05:00",1774489,13.35,72.62,3.711,0.728,9.21,101.7294,3.712,5.078,51.94,0,109.9,13.44,4.48,34.6
"2010-03-19 01:05:30",1774490,13.4,72.69,3.674,0.774,9.2,101.7291,3.712,5.069,51.98,0,109.9,13.44,4.48,34.7
"2010-03-19 01:06:00",1774491,13.71,72.24,3.708,0.679,9.29,101.7201,3.689,5.038,51.95,0,109.9,13.44,4.45,34.2
"2010-03-19 01:06:30",1774492,13.71,71.32,3.357,0.69,9.32,101.6975,3.631,5.013,52.04,0,109.9,13.44,4.40,33.3
"2010-03-19 01:07:00",1774493,13.82,73.11,3.582,0.723,9.22,101.6955,3.626,4.992,52.06,0,109.9,13.44,4.39,35.1
"2010-03-19 01:07:30",1774494,13.89,72.01,3.959,0.495,9.2,101.6961,3.627,5.007,52.05,0,109.9,13.44,4.39,34.0
"2010-03-19 01:08:00",1774495,13.57,73.55,3.675,0.747,9.23,101.6955,3.626,4.967,52.06,0,109.9,13.44,4.39,35.6
"2010-03-19 01:08:30",1774496,13.67,75.85,2.174,0.803,9.25,101.6848,3.598,4.948,52.16,0,109.9,13.43,4.36,37.8
"2010-03-19 01:09:00",1774497,13.98,75.88,3.06,0.763,9.11,101.6679,3.555,4.946,52.18,0,109.9,13.43,4.32,37.9
"2010-03-19 01:09:30",1774498,13.94,74.92,3.256,0.735,9.2,101.6751,3.574,4.925,52.23,0,109.9,13.43,4.34,36.9
"2010-03-19 01:10:00",1774499,13.84,73.58,3.499,0.679,9.22,101.68,3.586,4.907,52.27,0,109.9,13.43,4.35,35.6
"2010-03-19 01:10:30",1774500,13.99,74.15,3.445,0.548,9.37,101.6825,3.593,4.894,52.34,0,109.9,13.43,4.36,36.2
"2010-03-19 01:11:00",1774501,13.83,73.63,4.041,0.591,9.31,101.6681,3.556,4.875,52.39,0,109.9,13.43,4.32,35.6
"2010-03-19 01:11:30",1774502,14.07,74.97,3.131,0.765,9.22,101.6546,3.521,4.876,52.43,0,109.9,13.44,4.29,37.0
"2010-03-19 01:12:00",1774503,14.36,73.56,3.576,0.676,9.13,101.657,3.527,4.848,52.51,0,109.9,13.44,4.29,35.6
"2010-03-19 01:12:30",1774504,14.52,75.65,2.774,0.647,9.32,101.6584,3.531,4.839,52.49,0,109.9,13.44,4.30,37.7
"2010-03-19 01:13:00",1774505,14.23,73.47,2.715,0.758,9.16,101.6607,3.537,4.825,52.56,0,109.9,13.44,4.30,35.5
"2010-03-19 01:13:30",1774506,14.41,73.68,3.566,0.706,9.21,101.6613,3.538,4.821,52.57,0,109.8,13.44,4.30,35.7
"2010-03-19 01:14:00",1774507,14.31,74.06,3.41,0.684,9.28,101.6539,3.52,4.802,52.63,0,109.8,13.45,4.28,36.1
"2010-03-19 01:14:30",1774508,14.46,75.96,3.013,0.673,9.42,101.6316,3.463,4.776,52.61,0,109.8,13.45,4.23,38.0
"2010-03-19 01:15:00",1774509,14.23,72.48,3.326,0.693,9.27,101.6282,3.454,4.773,52.69,0,109.9,13.45,4.22,34.5
"2010-03-19 01:15:30",1774510,13.99,72.69,3.552,0.675,9.27,101.6282,3.454,4.776,52.75,0,109.8,13.45,4.22,34.7
"2010-03-19 01:16:00",1774511,14.11,72.22,3.304,0.713,9.24,101.6282,3.454,4.756,52.77,0,109.8,13.45,4.22,34.2
"2010-03-19 01:16:30",1774512,14.79,72.41,2.779,0.679,9.38,101.6282,3.454,4.741,52.76,0,109.8,13.45,4.22,34.4
"2010-03-19 01:17:00",1774513,14.71,72.35,3.704,0.68,9.3,101.6251,3.446,4.721,52.8,0,109.9,13.45,4.21,34.3
"2010-03-19 01:17:30",1774514,14.56,73.01,3.36,0.703,9.37,101.6149,3.42,4.722,52.84,0,109.8,13.45,4.18,35.0
"2010-03-19 01:18:00",1774515,14.58,71.73,3.952,0.619,9.39,101.6101,3.408,4.684,52.83,0,109.8,13.45,4.17,33.7
"2010-03-19 01:18:30",1774516,14.3,73.38,2.651,0.65,9.53,101.5968,3.374,4.684,52.84,0,109.8,13.45,4.14,35.4
"2010-03-19 01:19:00",1774517,13.91,74.92,3.617,0.775,9.24,101.5943,3.367,4.656,52.89,0,109.8,13.46,4.13,36.9
"2010-03-19 01:19:30",1774518,13.68,76.91,3.228,0.749,9.17,101.5943,3.367,4.677,52.99,0,109.8,13.45,4.13,38.9
"2010-03-19 01:20:00",1774519,13.79,74.71,3.389,0.713,9.13,101.5943,3.367,4.671,53.1,0,109.8,13.46,4.13,36.7
"2010-03-19 01:20:30",1774520,14.08,75.76,3.057,0.481,9.3,101.5943,3.367,4.65,53.13,0,109.8,13.46,4.13,37.8
"2010-03-19 01:21:00",1774521,14.39,74.79,3.59,0.742,9.21,101.594,3.367,4.653,53.21,0,109.8,13.46,4.13,36.8
"2010-03-19 01:21:30",1774522,14.12,74.08,2.799,0.831,9.04,101.5903,3.357,4.655,53.25,0,109.8,13.46,4.12,36.1
"2010-03-19 01:22:00",1774523,14.12,75.38,3.927,0.694,9.16,101.5768,3.323,4.627,53.33,0,109.8,13.46,4.09,37.4
"2010-03-19 01:22:30",1774524,14.08,74.41,3.012,0.679,9.21,101.5612,3.283,4.62,53.41,0,109.8,13.46,4.05,36.4
"2010-03-19 01:23:00",1774525,13.87,72.15,3.48,0.802,9.05,101.5604,3.281,4.609,53.47,0,109.8,13.46,4.04,34.2
"2010-03-19 01:23:30",1774526,14.07,73.61,2.952,0.773,9.13,101.5604,3.281,4.607,53.57,0,109.8,13.46,4.04,35.6
"2010-03-19 01:24:00",1774527,14.22,72.55,3.647,0.752,9.14,101.5604,3.281,4.595,53.59,0,109.8,13.46,4.04,34.6
"2010-03-19 01:24:30",1774528,14.81,73.26,2.909,0.698,9.24,101.5604,3.281,4.584,53.59,0,109.8,13.46,4.04,35.3
"2010-03-19 01:25:00",1774529,14.58,72.76,4.717,0.558,9.17,101.5561,3.27,4.56,53.64,0,109.8,13.45,4.03,34.8
"2010-03-19 01:25:30",1774530,13.62,74.98,4.604,0.819,9.16,101.5434,3.238,4.577,53.77,0,109.8,13.46,4.00,37.0
"2010-03-19 01:26:00",1774531,14.09,73.78,3.226,0.853,9.08,101.5341,3.214,4.552,53.84,0,109.8,13.45,3.98,35.8
"2010-03-19 01:26:30",1774532,14.06,72.52,3.64,0.592,9.29,101.5265,3.194,4.538,53.95,0,109.8,13.45,3.96,34.5
"2010-03-19 01:27:00",1774533,14.18,74.25,3.57,0.706,9.18,101.527,3.196,4.539,53.89,0,109.8,13.46,3.96,36.2
"2010-03-19 01:27:30",1774534,13.94,74.02,3.783,0.779,9.15,101.5267,3.195,4.521,53.96,0,109.8,13.45,3.96,36.0
"2010-03-19 01:28:00",1774535,13.79,71.41,3.795,0.806,9.05,101.5279,3.198,4.501,54,0,109.8,13.46,3.96,33.4
"2010-03-19 01:28:30",1774536,12.8,71,4.208,0.91,9.19,101.522,3.183,4.493,54.12,0,109.8,13.46,3.95,33.0
"2010-03-19 01:29:00",1774537,12.16,71.04,3.691,0.975,8.96,101.5036,3.136,4.49,54.22,0,109.8,13.46,3.90,33.0
"2010-03-19 01:29:30",1774538,13.17,71.76,5.021,0.88,8.94,101.4977,3.121,4.498,54.28,0,109.8,13.46,3.88,33.8
"2010-03-19 01:30:00",1774539,13.54,70.15,3.672,0.804,8.89,101.5029,3.134,4.457,54.28,0,109.8,13.46,3.90,32.2
"2010-03-19 01:30:30",1774540,13.62,74.61,3.491,0.713,9.13,101.5037,3.136,4.46,54.29,0,109.8,13.46,3.90,36.6
"2010-03-19 01:31:00",1774541,13.63,74,3.697,0.765,8.96,101.5075,3.146,4.446,54.38,0,109.8,13.46,3.91,36.0
"2010-03-19 01:31:30",1774542,13.63,74.46,3.448,0.686,8.94,101.5069,3.144,4.444,54.44,0,109.8,13.46,3.91,36.5
"2010-03-19 01:32:00",1774543,13.42,75.05,3.53,0.706,8.93,101.5029,3.134,4.43,54.51,0,109.8,13.47,3.90,37.1
"2010-03-19 01:32:30",1774544,13.04,76.41,3.258,0.58,9.06,101.4976,3.121,4.415,54.55,0,109.8,13.47,3.88,38.4
"2010-03-19 01:33:00",1774545,12.37,76.96,3.899,0.967,8.82,101.4897,3.1,4.413,54.65,0,109.8,13.47,3.86,39.0
"2010-03-19 01:33:30",1774546,12.08,75.95,3.131,0.812,8.72,101.4781,3.071,4.407,54.77,0,109.8,13.47,3.83,37.9
"2010-03-19 01:34:00",1774547,12.03,73.85,3.67,0.745,8.67,101.477,3.068,4.383,54.79,0,109.8,13.47,3.83,35.8
"2010-03-19 01:34:30",1774548,12.29,75.94,4.715,0.443,8.8,101.4796,3.075,4.384,54.82,0,109.8,13.47,3.84,37.9
"2010-03-19 01:35:00",1774549,11.91,76.12,3.465,0.814,8.58,101.4813,3.079,4.383,54.92,0,109.8,13.47,3.84,38.1
"2010-03-19 01:35:30",1774550,12.34,77.9,2.855,0.766,8.45,101.4821,3.081,4.379,55.08,0,109.8,13.47,3.84,39.9
"2010-03-19 01:36:00",1774551,12.05,76.14,2.802,0.882,8.58,101.4799,3.075,4.347,55.19,0,109.8,13.47,3.84,38.1
"2010-03-19 01:36:30",1774552,12.44,74.74,2.726,0.669,8.58,101.4734,3.059,4.352,55.19,0,109.8,13.47,3.82,36.7
"2010-03-19 01:37:00",1774553,12.69,74.72,3.038,0.798,8.42,101.4646,3.037,4.34,55.26,0,109.8,13.47,3.80,36.7
"2010-03-19 01:37:30",1774554,12.81,74.31,3.035,0.756,8.46,101.4528,3.006,4.339,55.34,0,109.8,13.47,3.77,36.3
"2010-03-19 01:38:00",1774555,12.7,74.29,3.731,0.739,8.49,101.4511,3.002,4.316,55.45,0,109.8,13.47,3.76,36.3
"2010-03-19 01:38:30",1774556,12.55,75.24,2.635,0.621,8.68,101.4528,3.006,4.32,55.55,0,109.8,13.47,3.77,37.2
"2010-03-19 01:39:00",1774557,12.88,73.35,3.394,0.718,8.55,101.4528,3.006,4.296,55.62,0,109.8,13.47,3.77,35.3
"2010-03-19 01:39:30",1774558,13.5,72.38,3.978,0.777,8.61,101.4548,3.011,4.322,55.65,0,109.8,13.48,3.77,34.4
"2010-03-19 01:40:00",1774559,13.42,70.61,4.584,0.772,8.69,101.4526,3.006,4.293,55.42,0,109.8,13.48,3.77,32.6
"2010-03-19 01:40:30",1774560,13.23,73.12,3.061,0.752,8.82,101.4461,2.989,4.287,55.42,0,109.8,13.47,3.75,35.1
"2010-03-19 01:41:00",1774561,13.1,69.74,3.424,0.65,8.68,101.4359,2.963,4.27,55.52,0,109.8,13.47,3.73,31.7
"2010-03-19 01:41:30",1774562,13.32,70.76,3.47,0.619,8.7,101.4263,2.939,4.256,55.62,0,109.8,13.47,3.70,32.8
"2010-03-19 01:42:00",1774563,13.2,72.22,3.706,0.673,8.73,101.4252,2.936,4.244,55.75,0,109.8,13.47,3.70,34.2
"2010-03-19 01:42:30",1774564,13.09,73.96,3.696,0.609,8.81,101.4252,2.936,4.24,55.91,0,109.8,13.47,3.70,36.0
"2010-03-19 01:43:00",1774565,13.15,73.36,3.569,0.747,8.68,101.4252,2.936,4.228,56,0,109.8,13.47,3.70,35.4
"2010-03-19 01:43:30",1774566,13.33,72.14,3.742,0.609,8.77,101.4238,2.932,4.226,55.99,0,109.8,13.47,3.69,34.1
"2010-03-19 01:44:00",1774567,13.22,73.74,2.688,0.761,8.6,101.4108,2.899,4.204,56.04,0,109.8,13.47,3.66,35.7
"2010-03-19 01:44:30",1774568,13.29,74.37,3.016,0.801,8.82,101.3929,2.853,4.177,56.06,0,109.8,13.47,3.62,36.4
"2010-03-19 01:45:00",1774569,13.39,73.07,3.443,0.717,8.77,101.3912,2.849,4.178,56.07,0,109.8,13.47,3.61,35.1
"2010-03-19 01:45:30",1774570,13,73.23,3.209,0.811,8.57,101.3912,2.849,4.181,56.21,0,109.8,13.47,3.61,35.2
"2010-03-19 01:46:00",1774571,12.83,72.63,3.579,0.733,8.63,101.3912,2.849,4.158,56.33,0,109.8,13.47,3.61,34.6
"2010-03-19 01:46:30",1774572,13.95,73.04,3.587,0.527,8.79,101.3912,2.849,4.151,56.3,0,109.8,13.47,3.61,35.0
"2010-03-19 01:47:00",1774573,13.46,72.28,4.178,0.524,8.83,101.3864,2.837,4.157,56.32,0,109.8,13.48,3.60,34.3
"2010-03-19 01:47:30",1774574,12.33,71.63,4.38,0.84,8.56,101.3765,2.812,4.137,56.46,0,109.8,13.48,3.57,33.6
"2010-03-19 01:48:00",1774575,13.1,72.36,2.993,0.917,8.54,101.3658,2.784,4.11,56.57,0,109.8,13.48,3.55,34.4
"2010-03-19 01:48:30",1774576,13.74,71.52,2.239,0.747,8.77,101.3576,2.763,4.1,56.55,0,109.8,13.48,3.53,33.5
"2010-03-19 01:49:00",1774577,13.91,71.07,3.182,0.821,8.65,101.3573,2.763,4.099,56.54,0,109.8,13.48,3.52,33.1
"2010-03-19 01:49:30",1774578,14.14,71.73,4.064,0.578,8.75,101.3573,2.763,4.077,56.61,0,109.8,13.48,3.52,33.7